[Iaude] MPEC G62: 2024 FH5 [a=2.52,e=0.58,i=12.1,H=25.0]
    mpec at cfa.harvard.edu 
    mpec at cfa.harvard.edu
       
    Fri Apr  5 09:00:43 EDT 2024
    
    
  
M.P.E.C. 2024-G62                                 Issued 2024 April 5, 12:59 UT
     The Minor Planet Electronic Circulars contain information on unusual
         minor planets, routine data on comets and natural satellites,
         and occasional editorial announcements.  They are published
    on behalf of Division F of the International Astronomical Union by the
          Minor Planet Center, Smithsonian Astrophysical Observatory,
                          Cambridge, MA 02138, U.S.A.
			  
             Prepared using the Tamkin Foundation Computer Network
                              MPC at CFA.HARVARD.EDU
            URL https://www.minorplanetcenter.net/    ISSN 1523-6714
                                    2024 FH5                                    
Observations:
     K24F05H* C2024 03 31.37985911 41 40.335-23 07 59.86         20.46wXEG062F51
     K24F05H  C2024 03 31.39228911 41 43.045-23 10 33.93         20.64wXEG062F51
     K24F05H  C2024 03 31.40350011 41 45.500-23 12 53.17         20.72wXEG062F51
     K24F05H  C2024 03 31.52095911 42 11.704-23 36 46.82         20.68GVEG062F52
     K24F05H  C2024 03 31.52161011 42 11.871-23 36 53.91         20.57GVEG062F52
     K24F05H |C2024 04 01.26114011 45 29.380-26 02 19.80         20.8 GVEG062807
     K24F05H |C2024 04 01.26561011 45 30.400-26 03 10.50         20.6 GVEG062807
     K24F05H |C2024 04 01.26994011 45 31.400-26 03 59.70         20.6 GVEG062807
     K24F05H |C2024 04 03.13584011 53 45.260-31 36 39.40         20.8 GVEG062807
     K24F05H |C2024 04 03.14134011 53 46.450-31 37 33.70         20.9 GVEG062807
     K24F05H |C2024 04 03.14670011 53 47.590-31 38 26.40         20.8 GVEG062807
     K24F05H 3C2024 04 05.46908912 03 34.849-37 21 36.80         21.09GVEG062T14
     K24F05H 3C2024 04 05.47007712 03 35.056-37 21 44.38         21.21GVEG062T14
     K24F05H 3C2024 04 05.47106012 03 35.260-37 21 52.03         21.09GVEG062T14
     K24F05H 3C2024 04 05.47204212 03 35.465-37 21 59.68         21.34GVEG062T14
Observer details:
807 Cerro Tololo Observatory, La Serena.  Observers T. Linder, R. Holmes.
    0.61-m f/6.8 Ritchey-Chretien + CCD.
F51 Pan-STARRS 1, Haleakala.  Observers J. Herman, T. Lowe, P. Minguez, A.
    Schultz, I. Smith.  Measurers K. Chambers, T. de Boer, J. Fairlamb, H.
    Gao, M. Huber, C.-C. Lin, E. Magnier, Y. Ramanjooloo, R. Wainscoat, R.
    Weryk.  1.8-m Ritchey-Chretien + CCD.
F52 Pan-STARRS 2, Haleakala.  Observers J. Herman, T. Lowe, P. Minguez, A.
    Schultz, I. Smith.  Measurers K. Chambers, T. de Boer, J. Fairlamb, H.
    Gao, M. Huber, C.-C. Lin, E. Magnier, Y. Ramanjooloo, R. Wainscoat, R.
    Weryk.  1.8-m Ritchey-Chretien + CCD.
T14 Canada-France-Hawaii Telescope, Maunakea.  Observers R. Wainscoat, L.
    Wells, T. Burdullis.  Measurers R. Weryk, R. Wainscoat.  3.6-m f/4.1
    reflector + CCD.
Orbital elements:
2024 FH5                                                 Earth MOID = 0.0657 AU
Epoch 2024 Mar. 31.0 TT = JDT 2460400.5                 Veres                   
M   2.60254              (2000.0)            P               Q                  
n   0.24611983     Peri.  175.39381     -0.99946399     -0.03099353             
a   2.5217671      Node     2.89370     +0.01912489     -0.81413625             
e   0.5791349      Incl.   12.05369     +0.02657024     -0.57984615             
P   4.00           H   25.09          G   0.15           U   8                  
Residuals in seconds of arc
240331 F51  0.1-  0.2+    240401 807  0.0   0.4-    240403 807  0.0   0.2+
240331 F51  0.1-  0.2+    240401 807  0.0   0.1-    240405 T14  0.0   0.0
240331 F51  0.0   0.3-    240401 807  0.0   0.1+    240405 T14  0.0   0.0
240331 F52  0.0   0.0     240403 807  0.1+  0.0     240405 T14  0.0   0.0
240331 F52 (0.2+  0.8+)   240403 807  0.2+  0.1+    240405 T14  0.0   0.0
Ephemeris:
2024 FH5                 a,e,i = 2.52, 0.58, 12                  q = 1.0613
Date    TT    R. A. (2000) Decl.     Delta      r    Elong.  Phase     V
2024 03 06    09 58 22.6 +54 27 12   0.1268  1.0769   129.3    45.5    22.5
...
2024 03 21    10 54 52.9 +20 10 55   0.07216 1.0613   153.8    24.5    20.6
...
2024 03 29    11 30 58.9 -14 12 51   0.07195 1.0669   161.6    17.2    20.4
...
2024 04 04    11 57 26.3 -33 52 41   0.08889 1.0773   149.0    28.6    21.3
2024 04 05    12 01 40.2 -36 17 09   0.09267 1.0795   147.2    30.1    21.4
2024 04 06    12 05 50.2 -38 28 23   0.09665 1.0819   145.7    31.4    21.5
...
2024 04 12    12 29 19.7 -47 52 04   0.1236  1.0990   139.2    36.6    22.2
...
2024 04 20    12 56 16.4 -54 01 50   0.1646  1.1289   136.1    38.1    23.0
...
2024 05 05    13 34 16.9 -56 54 52   0.2502  1.2036   137.0    34.9    23.9
M. P. C. Staff               (C) Copyright 2024 MPC           M.P.E.C. 2024-G62
    
    
More information about the Iaude
mailing list